Waarnemingen

Advertentie
Mijn weer
St-Hubert, België (6476): temperatuur & dauwpunt: 21.01.2020 21:00:00 - 27.01.2020 21:00:00 (CET)St-Hubert, België (6476): windsnelheid & windstoten: 21.01.2020 21:00:00 - 27.01.2020 21:00:00 (CET)St-Hubert, België (6476): windrichting: 21.01.2020 21:00:00 - 27.01.2020 21:00:00 (CET)St-Hubert, België (6476): luchtdruk: 21.01.2020 21:00:00 - 27.01.2020 21:00:00 (CET)St-Hubert, België (6476): zicht: 21.01.2020 21:00:00 - 27.01.2020 21:00:00 (CET)
Datum & Tijd tt [°C] td [°C] ff [km/u] ff [kn] fx [km/u] fx [kn] dd ppp [hPa] vv [km]
27.01.2020 21:00:00 4,4 3,7 25 14 50 27 ZZW 1000,7 9
27.01.2020 20:00:00 3,8 3,2 18 10 36 19 Z 1002,4 10
27.01.2020 19:00:00 4,1 3,2 18 10 - - ZZW 1003,8 7
27.01.2020 18:00:00 4,4 3,4 18 10 40 21 ZZW 1004,6 15
27.01.2020 17:00:00 4,5 3,8 18 10 36 19 ZZW 1005,4 2,8
27.01.2020 16:00:00 4,6 3,9 18 10 - - ZZW 1006,1 1,1
27.01.2020 15:00:00 4,7 3,9 18 10 40 21 ZZW 1007,0 10
27.01.2020 14:00:00 4,8 3,9 18 10 40 21 ZZW 1007,4 8
27.01.2020 13:00:00 4,6 3,5 22 12 - - ZZW 1008,5 11
27.01.2020 12:00:00 4,7 3,7 22 12 40 21 ZZW 1009,5 12
27.01.2020 11:00:00 4,8 4,0 18 10 36 19 ZZW 1009,7 4,8
27.01.2020 10:00:00 4,6 3,8 18 10 - - ZZW 1010,2 4,7
27.01.2020 09:00:00 4,5 3,8 18 10 36 19 ZZW 1010,9 7
27.01.2020 08:00:00 4,5 3,7 14 8 36 19 ZZW 1011,2 5
27.01.2020 07:00:00 4,5 3,7 18 10 - - ZZW 1011,8 23
27.01.2020 06:00:00 4,4 3,6 22 12 40 21 ZZW 1012,0 9
27.01.2020 05:00:00 4,1 2,9 22 12 40 21 ZZW 1013,0 22
27.01.2020 04:00:00 4,5 3,5 18 10 - - ZW 1013,4 6
27.01.2020 03:00:00 4,4 3,6 22 12 40 21 ZZW 1013,9 5
27.01.2020 02:00:00 4,5 3,5 22 12 36 19 ZZW 1014,1 -
27.01.2020 01:00:00 4,4 3,1 18 10 - - ZZW 1015,1 13
27.01.2020 00:00:00 4,0 2,8 14 8 32 18 ZZW 1015,3 11
26.01.2020 23:00:00 4,2 2,8 14 8 32 18 ZZW 1015,7 11
26.01.2020 22:00:00 4,7 3,2 18 10 - - ZW 1016,1 12
26.01.2020 21:00:00 4,9 3,7 22 12 47 25 ZZW 1016,2 -
26.01.2020 20:00:00 4,5 3,4 14 8 32 18 ZZW 1016,4 5
26.01.2020 19:00:00 4,3 3,3 18 10 - - Z 1016,4 5
26.01.2020 18:00:00 4,1 2,8 14 8 25 14 Z 1016,5 -
26.01.2020 17:00:00 4,3 2,8 14 8 25 14 Z 1016,6 -
26.01.2020 16:00:00 4,7 3,0 11 6 - - Z 1016,7 -
26.01.2020 15:00:00 4,9 3,2 11 6 25 14 Z 1016,9 -
26.01.2020 14:00:00 4,7 2,9 7 4 18 10 Z 1017,2 9
26.01.2020 13:00:00 3,6 2,9 11 6 - - ZZW 1018,1 -
26.01.2020 12:00:00 2,9 2,1 11 6 18 10 Z 1018,6 1,8
26.01.2020 11:00:00 1,6 1,1 7 4 11 6 Z 1019,1 0,1
26.01.2020 10:00:00 1,3 0,7 7 4 - - Z 1019,0 0,1
26.01.2020 09:00:00 1,2 0,7 7 4 14 8 Z 1018,8 0,2
26.01.2020 08:00:00 1,5 0,7 4 2 22 12 - 1018,5 1,3
26.01.2020 07:00:00 1,5 0,4 11 6 - - ZZO 1018,5 4,1
26.01.2020 06:00:00 1,9 0,5 11 6 22 12 Z 1018,5 -
26.01.2020 05:00:00 1,6 0,5 11 6 18 10 ZO 1018,5 5
26.01.2020 04:00:00 1,5 0,5 11 6 - - ZO 1019,1 -
26.01.2020 03:00:00 2,2 1,0 14 8 25 14 ZO 1019,3 5
26.01.2020 02:00:00 3,6 1,9 11 6 22 12 ZO 1019,1 -
26.01.2020 01:00:00 3,5 1,8 11 6 - - ZZO 1019,8 14
26.01.2020 00:00:00 3,7 1,8 7 4 22 12 ZZO 1020,0 22
25.01.2020 23:00:00 3,8 1,9 14 8 22 12 ZO 1020,2 26
25.01.2020 22:00:00 3,7 2,0 11 6 - - ZO 1020,5 22
25.01.2020 21:00:00 3,8 1,7 11 6 18 10 ZO 1020,7 30
25.01.2020 20:00:00 2,7 1,0 7 4 18 10 ZO 1021,2 40
25.01.2020 19:00:00 2,6 0,4 7 4 - - ZO 1021,3 45
25.01.2020 18:00:00 2,6 0,6 7 4 11 6 ZO 1021,2 45
25.01.2020 17:00:00 4,5 2,3 7 4 11 6 Z 1020,7 35
25.01.2020 16:00:00 7,2 1,5 4 2 - - ZZW 1020,1 21
25.01.2020 15:00:00 7,4 2,2 7 4 11 6 WZW 1020,5 35
25.01.2020 14:00:00 6,4 2,6 7 4 14 8 ZW 1021,4 30
25.01.2020 13:00:00 5,9 2,5 7 4 - - WZW 1022,2 30
25.01.2020 12:00:00 5,0 2,2 7 4 11 6 ZW 1022,8 35
25.01.2020 11:00:00 3,3 1,4 4 2 7 4 ZW 1023,0 30
25.01.2020 10:00:00 1,7 0,4 4 2 - - Z 1023,1 22
25.01.2020 09:00:00 -0,7 -0,7 0 0 11 6 N 1023,3 0,2
25.01.2020 08:00:00 -0,1 -0,4 7 4 11 6 ZZW 1022,7 0,1
25.01.2020 07:00:00 0,5 0,3 7 4 - - Z 1022,5 0,1
25.01.2020 06:00:00 1,4 1,0 7 4 11 6 ZW 1022,2 -
25.01.2020 05:00:00 1,4 1,0 7 4 14 8 ZW 1022,5 0,1
25.01.2020 04:00:00 0,7 0,3 7 4 - - WZW 1023,0 0,1
25.01.2020 03:00:00 1,0 -0,5 7 4 11 6 ZW 1023,0 4,8
25.01.2020 02:00:00 0,7 -0,5 7 4 11 6 ZW 1023,2 5
25.01.2020 01:00:00 0,7 -1,3 4 2 - - ZW 1023,7 5
25.01.2020 00:00:00 -0,9 -2,5 7 4 11 6 ZW 1024,0 -
24.01.2020 23:00:00 -1,1 -2,7 4 2 11 6 WZW 1024,2 -
24.01.2020 22:00:00 -0,4 -2,6 4 2 - - ZW 1024,2 10
24.01.2020 21:00:00 -0,6 -3,2 7 4 14 8 Z 1024,0 10
24.01.2020 20:00:00 -1,5 -3,1 7 4 14 8 ZZO 1024,0 7
24.01.2020 19:00:00 -1,3 -1,9 7 4 - - ZO 1024,1 0,4
24.01.2020 18:00:00 -1,3 -1,3 4 2 7 4 ZZO 1024,0 0,1
24.01.2020 17:00:00 0,0 -1,0 7 4 7 4 Z 1023,3 3,3
24.01.2020 16:00:00 1,9 -0,6 4 2 - - ZW 1023,0 -
24.01.2020 15:00:00 1,9 -0,8 7 4 14 8 W 1023,1 -
24.01.2020 14:00:00 1,7 -0,5 7 4 11 6 ZZW 1023,5 5
24.01.2020 13:00:00 1,1 -0,7 4 2 - - ZW 1024,2 5
24.01.2020 12:00:00 -0,2 -1,7 7 4 18 10 ZZO 1024,7 5
24.01.2020 11:00:00 -1,7 -3,2 11 6 18 10 ZZO 1025,0 4,7
24.01.2020 10:00:00 -3,2 -4,2 7 4 - - ZZO 1025,4 1,8
24.01.2020 09:00:00 -3,9 -5,0 7 4 18 10 ZO 1025,4 2,9
24.01.2020 08:00:00 -3,7 -4,3 7 4 14 8 ZZO 1025,4 0,5
24.01.2020 07:00:00 -3,5 -4,3 7 4 - - ZO 1025,3 0,2
24.01.2020 06:00:00 -3,2 -3,9 4 2 14 8 ZO 1025,6 0,2
24.01.2020 05:00:00 -3,0 -3,6 7 4 14 8 - 1025,4 0,2
24.01.2020 04:00:00 -2,8 -3,5 7 4 - - ZZO 1025,8 0,2
24.01.2020 03:00:00 -2,6 -3,2 11 6 18 10 ZZO 1026,4 0,1
24.01.2020 02:00:00 -2,3 -2,9 11 6 22 12 ZO 1026,8 0,1
24.01.2020 01:00:00 -2,2 -2,9 11 6 - - Z 1027,5 0,2
24.01.2020 00:00:00 -2,0 -2,7 7 4 18 10 Z 1027,4 0,3
23.01.2020 23:00:00 -1,9 -2,6 7 4 14 8 ZZO 1027,6 0,8
23.01.2020 22:00:00 -1,6 -2,5 7 4 - - O 1027,3 3,9
23.01.2020 21:00:00 -1,3 -1,9 7 4 14 8 O 1027,5 0,3
23.01.2020 20:00:00 -1,0 -1,6 7 4 11 6 OZO 1027,8 0,4
23.01.2020 19:00:00 -0,7 -1,3 4 2 - - - 1027,9 0,2
23.01.2020 18:00:00 -0,5 -1,0 18 10 25 14 NO 1027,7 0,1
23.01.2020 17:00:00 -0,2 -0,7 11 6 22 12 ONO 1028,0 0,2
23.01.2020 16:00:00 0,3 -0,1 11 6 - - ONO 1028,5 0,5
23.01.2020 15:00:00 0,5 -0,3 11 6 22 12 O 1029,4 0,3
23.01.2020 14:00:00 0,3 -0,4 11 6 18 10 O 1030,3 0,2
23.01.2020 13:00:00 -0,1 -0,8 11 6 - - O 1031,4 0,2
23.01.2020 12:00:00 -0,3 -1,1 7 4 18 10 O 1032,0 0,3
23.01.2020 11:00:00 -0,5 -1,5 7 4 18 10 ONO 1032,2 8
23.01.2020 10:00:00 -0,9 -1,8 11 6 - - ONO 1032,4 0,6
23.01.2020 09:00:00 -1,1 -1,7 22 12 29 16 ONO 1032,9 0,2
23.01.2020 08:00:00 -0,8 -1,5 18 10 29 16 ONO 1032,7 0,1
23.01.2020 07:00:00 -0,6 -1,1 14 8 - - ONO 1032,8 0,1
23.01.2020 06:00:00 -0,6 -1,2 14 8 29 16 ONO 1032,9 0,1
23.01.2020 05:00:00 -0,4 -1,1 22 12 32 18 ONO 1033,5 0,1
23.01.2020 04:00:00 -0,3 -0,8 22 12 - - ONO 1034,2 0,1
23.01.2020 03:00:00 0,0 -0,7 25 14 40 21 O 1035,0 0,2
23.01.2020 02:00:00 0,4 -0,4 22 12 32 18 O 1035,6 0,2
23.01.2020 01:00:00 0,5 -0,1 18 10 - - O 1036,1 0,3
23.01.2020 00:00:00 0,4 -0,2 18 10 29 16 ONO 1036,2 0,2
22.01.2020 23:00:00 0,3 -0,3 22 12 32 18 ONO 1036,1 0,1
22.01.2020 22:00:00 0,1 -0,6 22 12 - - ONO 1036,1 0,2
22.01.2020 21:00:00 0,1 -0,7 18 10 36 19 ONO 1036,5 2,9
22.01.2020 20:00:00 0,2 -0,6 22 12 32 18 ONO 1036,1 1,9
22.01.2020 19:00:00 -0,1 -2,2 18 10 - - ONO 1035,9 11
22.01.2020 18:00:00 0,5 -3,5 14 8 18 10 NO 1035,8 24
22.01.2020 17:00:00 2,1 -4,5 11 6 18 10 ONO 1035,0 40
22.01.2020 16:00:00 3,5 -6,9 11 6 - - ONO 1034,7 40
22.01.2020 15:00:00 3,9 -7,8 7 4 18 10 ONO 1035,1 40
22.01.2020 14:00:00 3,9 -7,0 11 6 14 8 NNO 1035,6 45
22.01.2020 13:00:00 2,3 -6,9 11 6 - - ONO 1036,3 40
22.01.2020 12:00:00 1,4 -6,8 11 6 18 10 NO 1037,2 40
22.01.2020 11:00:00 1,7 -8,5 11 6 18 10 NO 1036,8 45
22.01.2020 10:00:00 0,5 -8,3 11 6 - - ONO 1036,9 45
22.01.2020 09:00:00 -0,6 -9,3 11 6 18 10 ONO 1036,7 45
22.01.2020 08:00:00 -1,5 -7,9 14 8 25 14 ONO 1037,1 45
22.01.2020 07:00:00 -3,1 -7,3 14 8 - - NO 1037,7 45
22.01.2020 06:00:00 -2,3 -7,2 11 6 22 12 NO 1037,4 45
22.01.2020 05:00:00 -2,2 -5,7 14 8 22 12 NO 1037,9 45
22.01.2020 04:00:00 -1,5 -5,3 14 8 - - NO 1038,3 40
22.01.2020 03:00:00 0,1 -5,1 14 8 18 10 NO 1038,2 45
22.01.2020 02:00:00 -1,8 -4,3 14 8 18 10 ONO 1038,5 28
22.01.2020 01:00:00 -1,9 -3,9 14 8 - - NO 1039,2 16
22.01.2020 00:00:00 -1,8 -3,7 11 6 18 10 ONO 1039,4 14
21.01.2020 23:00:00 -1,7 -3,6 14 8 18 10 ONO 1039,8 12
21.01.2020 22:00:00 -1,7 -3,6 14 8 - - NO 1040,2 14
21.01.2020 21:00:00 -1,5 -3,3 11 6 18 10 ONO 1040,4 15

tt = temperatuur
td = dauwpunt
ff = windsnelheid
fx = windstoten
dd = windrichting
ppp = luchtdruk
vv = zicht

Weerstations in de omgeving